Location: Johnson City
(36.3130°N, 82.3540°W)
Time: 22:38:00
(UTC-04:00)

Tiangong 1 - Visible Passes

Search period start: 24 July 2017 00:00
Search period end: 03 August 2017 00:00
Orbit: 315 x 342 km, 42.8° (Epoch: 24 July)

Date Brightness Start Highest point End Pass type
(mag) Time Alt. Az. Time Alt. Az. Time Alt. Az.
25 Jul 2.9 05:11:09 15° SSE 05:11:58 16° SE 05:13:49 10° E visible
26 Jul 1.3 05:28:22 22° SSW 05:29:50 45° SSE 05:32:30 10° ENE visible
27 Jul 0.9 05:45:29 13° WSW 05:47:47 64° NNW 05:50:33 10° ENE visible
28 Jul 2.7 04:31:27 25° E 04:31:27 25° E 04:32:56 10° ENE visible
29 Jul 1.0 04:48:24 63° NNE 04:48:24 63° NNE 04:50:55 10° ENE visible
30 Jul 2.1 05:05:18 26° NW 05:06:08 32° NNW 05:08:40 10° NE visible
31 Jul 4.4 03:51:06 10° ENE 03:51:06 10° ENE 03:51:07 10° ENE visible
31 Jul 2.9 05:22:09 12° WNW 05:24:08 22° N 05:26:24 10° NE visible
01 Aug 3.8 04:07:55 17° NE 04:07:55 17° NE 04:08:46 10° NE visible
01 Aug 3.1 05:40:01 10° NW 05:42:09 20° N 05:44:19 10° NE visible
02 Aug 3.3 04:24:44 21° NNE 04:24:44 21° NNE 04:26:24 10° NE visible
02 Aug 3.0 05:57:50 10° NW 06:00:07 23° N 06:02:25 10° ENE visible
